Regional Weather Roundup
Issued by NWS New Orleans/Baton Rouge, LA

Home | Current Version | Previous Version | Graphics & Text | Print | Product List | Glossary On
Versions: 1 2 3 4 5 6 7 8 9 10 11 12 13 14 15 16 17 18 19 20 21 22 23 24 25 26 27 28 29 30 31 32 33 34 35 36 37 38 39 40 41 42 43 44 45 46 47 48 49 50
805
ASUS44 KLIX 212310
RWRLIX
NEW ORLEANS REGIONAL WEATHER ROUNDUP
NATIONAL WEATHER SERVICE NEW ORLEANS LA
600 PM CDT TUE OCT 21 2014

NOTE: "FAIR" INDICATES FEW OR NO CLOUDS BELOW 12,000 FEET WITH NO
      SIGNIFICANT WEATHER AND/OR OBSTRUCTIONS TO VISIBILITY.
      SKY/WX - SKY CONDITION AND SIGNIFICANT WEATHER.
      TMP - AIR TEMPERATURE.     DP    - DEWPOINT TEMPERATURE.
      RH  - RELATIVE HUMIDITY.   PRES  - PRESSURE.
      HI  - HEAT INDEX.          WCI   - WIND CHILL INDEX.

*  THESE STATIONS ARE NOT NWS OR FAA STATIONS AND ARE NOT UNDER
   NWS QUALITY CONTROL.

LAZ038-040-048-061>063-065>067-069-220000-
SOUTHEAST LOUISIANA

CITY           SKY/WX    TMP DP  RH WIND       PRES   REMARKS
N.O. AUDUBON     N/A     79  56  44 MISG        N/A
N.O. INTL ARPT PTCLDY    78  53  41 E5        29.97S
N.O. LAKEFRONT CLEAR     77  56  48 CALM      29.97F
N.O. DOWNTOWN*   N/A     79  52  38 CALM      29.98S
SLIDELL        CLEAR     75  58  55 CALM      29.96S
BATON ROUGE    CLEAR     77  57  50 NE3       29.98S
BOOTHVILLE     CLEAR     74  58  57 NE6       29.97S
BELLE CHASSE   CLEAR     71  59  65 CALM      29.97S
BOGALUSA*        N/A     77  53  43 N6        29.99S
NEW ROADS*       N/A     76  60  56 NW7       29.99S
GONZALES*        N/A     77  58  50 CALM      29.97S
HAMMOND*       CLEAR     77  54  44 CALM      29.99S
HOUMA*         CLEAR     75  55  50 NE3       29.97S
PORT FOURCHON* CLEAR     75  57  53 NE10      30.00S

$$

MSZ070-080>082-220000-
SOUTHERN MISSISSIPPI

CITY           SKY/WX    TMP DP  RH WIND       PRES   REMARKS
MCCOMB         CLEAR     77  55  46 N5        30.00S
GULFPORT       CLEAR     76  55  48 CALM      29.96R
BILOXI         CLEAR     74  60  61 SW3       29.97R
PASCAGOULA     CLEAR     73  57  57 CALM      29.96S
STENNIS ARPT*  CLEAR     72  55  56 CALM      29.97R

$$

COASTAL OBSERVATIONS
LAKE AND NEARSHORE STATIONS

STATION/POSITION TIME  TEMP    WIND        PRES    WAVE
                       AIR SEA DIR/SP/G            HT/PER
                 (UTC) (F)     (DEG/KT/KT) (MB)    (FT/S)
PASCAGOULA       2300   75     230/  6/  7 1014.2
WAVELAND YACHT   2300   74     220/  3/  4 1014.0
GRAND ISLE       2300   74 77   60/  8/ 11 1015.4
SOUTHWEST PASS   2300   80 84              1014.6
NEW CANAL        2300   76 73   80/  2/  3 1015.2
SHELL BEACH      2300   76 70  290/  1/  2 1014.7

OFFSHORE STATIONS

STATION/POSITION TIME  TEMP    WIND        PRES    WAVE
                       AIR SEA DIR/SP/G            HT/PER
                 (UTC) (F)     (DEG/KT/KT) (MB)    (FT/S)
64 S DAUPHIN ISL 2230   74 80   30/ 12/ 14 1014.5    2/ 4

$$




USA.gov is the U.S. government's official web portal to all federal, state and local government web resources and services.